CZ-6A DEB

Satellite information

Favourite Embed

Satellite Type and Status

DEBRISIN ORBIT

Key statistics

Satellite CZ-6A DEB at a glance.

Uptime

912

Days in orbit

Revolutions

≈ 14.2

Per day

Orbit

SSO

Sun Synchronous Orbit

Inclination

98.8

Latest

Satellite identification and parameters

Extended collection of information and parameters for CZ-6A DEB.

Object identification

Identified? True

Debris? True

Object name: CZ-6A DEB

International designator: 2022-151UE

Object number (NORAD): 54989

Object ID (CCSDS): 54989

Country: PEOPLES REPUBLIC OF CHINA (PRC)

Current information (Y/N): Y

RCS size: SMALL

Orbital parameters

Period: 101.179 minutes

Inclination: 98.7766 deg

SMA: 7192.601 km

Apoapsis: 864.405 km

Periapsis: 764.527 km

RAAN: 147.29 deg

Eccentricy: 0.0069431

Argument of periapsis: 66.9391 deg

Mean anomaly: 293.9088 deg

Mean motion: 14.23225737 rev/day

Mean motion (dot): 0.00001489 rev/day2

B* drag term: 0.0006613 1/REarth

Two-line elements (TLE)

Creation date: May 10, 2025, 11:16 p.m.

Reference frame: TEME

Reference center: EARTH

Epoch: May 10, 2025, 9:25 p.m. UTC

TLE line 0: 0 CZ-6A DEB

TLE line 1: 1 54989U 22151UE 25130.89294759 .00001489 00000-0 66130-3 0 9991

TLE line 2: 2 54989 98.7766 147.2900 0069431 66.9391 293.9088 14.23225737128095

Live tracking on map

Real-time ground track for satellite CZ-6A DEB.

In-orbit conjunctions

A list of the most updated potential collisions computed for object CZ-6A DEB.

Target Orbit TCA Probability of collision Miss distance Type
COSMOS 2251 DEB LEO 2024-07-13 13:54:14 0.0001344869 390.0 (m) DEBRIS

Associated space launch

Chinese satellite reported for atmospheric/ocean/environmental/spatial parameter research purposes, details TBD.

CZ-6A DEB was lifted into orbit during the mission ‘Long March 6A | Yunhai 3’, on board a Long March 6A space rocket.

The launch took place on Nov. 11, 2022, 10:52 p.m. from Launch Complex 9A.

For more information about the launch, click the button.

Launch to space Long March 6A | Yunhai 3
Long March 6A | Yunhai 3

Agency: N/A

Status: Launch Successful

Launch date: Nov. 11, 2022, 10:52 p.m. UTC

Rocket: Long March 6A

Launch pad: Launch Complex 9A

Location: Taiyuan Satellite Launch Center, People's Republic of China

...

Latest news about this satellite

There are no fresh news available about this satellite. Check back as we update our databases every day.


Newsletter sign-up

Weekly statistics, charts and insights to help you stay on top of the space industry.